Location: Bratislava
(48.1500°N, 17.1170°E)
Time: 04:18:16
(UTC+01:00)

N. Korean satellite - Pass Details

Date: 02 February 2019
Orbit: 456 x 510 km, 97.2° (Epoch: 20 February)

Event Time Altitude Azimuth Distance (km) Brightness Sun altitude
Rises 17:23:06 0° 175° (S) 2,605 10.5 -5.6°
Reaches altitude 10° 17:25:12 10° 178° (S) 1,726 9.6 -6.0°
Maximum altitude 17:28:54 60° 259° (W) 590 7.4 -6.5°
Drops below altitude 10° 17:32:37 10° 341° (NNW) 1,738 9.4 -7.1°
Sets 17:34:44 0° 345° (NNW) 2,625 10.3 -7.5°
